Cloud_Cover
98 97 94 100 100 100 100 100 100 100 100 100 100 100 100 100 100 100 100 100 100 100 100 100 100 100 100 97 94 78 74 99
95 98 100 55 54 96 100 100 100 100 100 100 100 100 100 100 100 100 100 100 100 100 100 100 100 100 100 72 44 100 79 98
100 100 78 100 100 100 100 100 100 100 100 84 100 100 100 100 100 100 100 100 100 100 100 100 100 95 96 100 97 61 95 100
95 100 100 100 96 100 100 100 100 100 72 47 100 100 100 100 100 100 100 100 100 100 96 100 100 98 69 68 100 100 84 59
100 100 70 87 100 100 100 100 100 100 100 100 100 100 100 100 99 100 100 100 100 100 100 100 75 100 100 100 100 100 100 81
100 100 85 67 83 12 79 90 100 100 100 100 100 100 100 100 100 100 99 100 98 100 100 100 100 99 100 100 100 100 100 100
100 100 100 100 100 84 51 96 100 100 100 100 100 100 90 98 93 96 88 100 100 100 100 100 100 88 100 100 100 100 100 100
66 100 100 100 100 100 100 86 66 97 56 100 100 100 100 100 100 100 100 100 100 100 100 100 100 100 100 100 100 100 100 100
100 72 3 58 100 100 18 11 77 20 6 84 97 100 100 100 100 100 100 100 100 100 100 98 100 100 100 100 100 100 100 100
5 83 63 64 6 56 30 4 44 94 99 75 9 5 38 97 100 100 100 100 100 100 100 100 100 100 100 100 100 100 100 100
4 5 5 24 51 20 39 43 10 5 34 42 67 51 54 73 99 90 95 82 94 100 100 100 100 100 100 100 100 100 100 100
5 5 5 13 61 97 5 12 16 14 6 5 5 5 68 100 96 93 94 100 100 100 100 100 100 100 100 100 100 100 100 100
4 5 0 3 96 23 15 5 4 5 56 86 12 39 80 100 100 99 100 99 91 100 100 100 100 100 100 100 100 100 100 100
2 5 5 1 0 0 5 4 3 14 89 97 55 68 100 100 100 100 100 100 100 100 99 98 100 100 100 100 100 100 100 100
1 32 2 0 2 5 0 91 100 96 54 39 72 100 99 100 100 100 100 100 100 100 100 100 100 100 100 100 100 100 100 100
39 2 5 5 0 0 0 96 72 31 14 78 100 100 100 100 100 100 100 100 100 99 100 100 100 100 100 100 100 100 100 100
5 0 0 0 0 0 0 14 5 44 100 100 100 100 100 100 100 100 98 100 100 100 100 100 100 99 100 100 98 100 100 100
6 0 0 0 0 1 1 0 9 36 100 100 100 100 100 100 100 100 100 100 100 100 100 100 95 100 99 92 100 100 100 100
17 4 4 97 4 1 1 4 32 94 100 100 100 100 100 100 100 100 100 100 100 100 100 100 100 80 42 89 100 63 100 100